Weather History for KBLI - May, 2013

Change the Weather History Date:

Monday, May 6, 2013

  Actual Average Record
Temperature  
Mean Temperature 64 °F 52 °F  
Max Temperature 79 °F 61 °F 79 °F (2013)
Min Temperature 48 °F 43 °F 31 °F (1965)
Degree Days  
Heating Degree Days 1 13  
Month to date heating degree days 54 81  
Cooling Degree Days 0 0  
Month to date cooling degree days 0 0  
Year to date cooling degree days 0 0  
Growing Degree Days 13 (Base 50)    
Moisture  
Dew Point 49 °F    
Average Humidity 61    
Maximum Humidity 93    
Minimum Humidity 29    
Precipitation  
Precipitation 0.00 in 0.09 in 1.39 in (1966)
Month to date precipitation 0.00 0.49  
Year to date precipitation 10.67 14.09  
Sea Level Pressure  
Sea Level Pressure 29.84 in    
Wind  
Wind Speed 3 mph (SSW)    
Max Wind Speed 13 mph    
Max Gust Speed 17 mph    
Visibility 10 miles    
Events      
T = Trace of Precipitation, MM = Missing Value Source: NWS Daily Summary

Daily Weather History Graph

Daily Weather History Graph

Search for Another Location

Airport or City:

Trip Planner

Search our weather history database for the weather conditions in past years. The results will help you decide how hot, cold, wet, or windy it might be!

Date:

Astronomy

May. 06, 2013 Rise Set
Actual Time 5:41 AM PDT 8:33 PM PDT
Civil Twilight 5:04 AM PDT 9:09 PM PDT
Nautical Twilight 4:18 AM PDT 9:56 PM PDT
Astronomical Twilight 3:21 AM PDT 10:53 PM PDT
Moon 4:02 AM PDT (5/6) 5:25 PM PDT (5/6)
Length of Visible Light 16h 05m
Length of Day
14h 52m
Waning Crescent, 10% of the Moon is Illuminated
May 6
Waning Crescent
May 9
New
May 17
First Quarter
May 24
Full
May 31
Last Quarter

Hourly Weather History & Observations

Time (PDT) Temp. Dew Point Humidity Pressure Visibility Wind Dir Wind Speed Gust Speed Precip Events Conditions
12:53 AM 55.0 °F 48.0 °F 77% 29.84 in 10.0 mi Calm Calm - N/A   Clear
1:53 AM 57.9 °F 48.0 °F 70% 29.84 in 10.0 mi South 4.6 mph - N/A   Clear
2:53 AM 53.1 °F 48.0 °F 83% 29.86 in 10.0 mi Calm Calm - N/A   Clear
3:53 AM 51.1 °F 48.9 °F 92% 29.86 in 10.0 mi Calm Calm - N/A   Clear
4:53 AM 50.0 °F 46.9 °F 89% 29.86 in 10.0 mi Calm Calm - N/A   Clear
5:53 AM 48.0 °F 46.0 °F 93% 29.87 in 10.0 mi Calm Calm - N/A   Clear
6:53 AM 54.0 °F 48.0 °F 80% 29.87 in 10.0 mi North 3.5 mph - N/A   Clear
7:53 AM 59.0 °F 48.0 °F 67% 29.88 in 10.0 mi Calm Calm - N/A   Clear
8:53 AM 63.0 °F 50.0 °F 63% 29.88 in 10.0 mi Calm Calm - N/A   Clear
9:53 AM 66.9 °F 48.9 °F 52% 29.88 in 10.0 mi WNW 4.6 mph - N/A   Clear
10:53 AM 70.0 °F 53.1 °F 55% 29.88 in 10.0 mi Calm Calm - N/A   Clear
11:53 AM 73.0 °F 54.0 °F 51% 29.87 in 10.0 mi Variable 3.5 mph - N/A   Clear
12:53 PM 75.0 °F 54.0 °F 48% 29.85 in 10.0 mi Variable 3.5 mph - N/A   Clear
1:53 PM 78.1 °F 53.1 °F 42% 29.84 in 10.0 mi Variable 3.5 mph - N/A   Clear
2:53 PM 78.1 °F 51.1 °F 39% 29.83 in 10.0 mi Variable 6.9 mph - N/A   Clear
3:53 PM 77.0 °F 46.9 °F 34% 29.81 in 10.0 mi West 5.8 mph - N/A   Clear
4:53 PM 77.0 °F 42.1 °F 29% 29.80 in 10.0 mi West 5.8 mph - N/A   Clear
5:53 PM 77.0 °F 46.0 °F 33% 29.80 in 10.0 mi Calm Calm - N/A   Clear
6:53 PM 73.9 °F 48.0 °F 40% 29.79 in 10.0 mi SSE 4.6 mph - N/A   Clear
7:53 PM 68.0 °F 50.0 °F 52% 29.78 in 10.0 mi South 3.5 mph - N/A   Clear
8:53 PM 63.0 °F 52.0 °F 67% 29.79 in 10.0 mi Calm Calm - N/A   Clear
9:53 PM 60.1 °F 51.1 °F 72% 29.81 in 10.0 mi South 3.5 mph - N/A   Clear
10:53 PM 59.0 °F 51.1 °F 75% 29.81 in 10.0 mi South 6.9 mph - N/A   Clear
11:53 PM 57.9 °F 51.1 °F 78% 29.81 in 10.0 mi South 8.1 mph - N/A   Clear